Satellite-Ground Cal/Val Site Overpasses Predictions

Prediction of Satellite NPP Overpassing Cal/Val Site: Antarctic Dome C

Ground Cal/Val Site Location: Latitude: -75.10, Longitude: 123.35; Satellite-Ground Site NADIR distance within 100 km.

Table of predicted overpasses for the next 14.0 days since TLE Epoch: 11/3/2011
Interval Starting Time Ending Time Minimum Distance Time Minimum Distance (km)
1 11/03/2011 14:56:07 11/03/2011 14:56:36 11/03/2011 14:56:21 23.09
2 11/04/2011 14:35:46 11/04/2011 14:35:56 11/04/2011 14:35:51 93.46
3 11/05/2011 07:36:08 11/05/2011 07:36:36 11/05/2011 07:36:22 27.00
4 11/06/2011 07:15:57 11/06/2011 07:16:08 11/06/2011 07:16:03 92.71
5 11/08/2011 14:55:05 11/08/2011 14:55:34 11/08/2011 14:55:19 17.23
6 11/09/2011 14:35:22 11/09/2011 14:35:30 11/09/2011 14:35:26 95.71
7 11/10/2011 07:36:07 11/10/2011 07:36:35 11/10/2011 07:36:21 27.07
8 11/11/2011 07:16:32 11/11/2011 07:16:45 11/11/2011 07:16:39 88.94
9 11/13/2011 14:57:05 11/13/2011 14:57:33 11/13/2011 14:57:19 28.97
10 11/14/2011 14:37:52 11/14/2011 14:38:08 11/14/2011 14:38:00 81.30
11 11/15/2011 07:39:09 11/15/2011 07:39:35 11/15/2011 07:39:22 44.40


NCC Satellite Cal/Val Overpasses Prediction Service
